Regional Weather Roundup
Issued by NWS Sterling, VA

Home | Current Version | Previous Version | Graphics & Text | Print | Product List | Glossary On
Versions: 1 2 3 4 5 6 7 8 9 10 11 12 13 14 15 16 17 18 19 20 21 22 23 24 25 26 27
000
ASUS41 KLWX 300210
RWRLWX

REGIONAL WEATHER ROUNDUP
NATIONAL WEATHER SERVICE BALTIMORE MD/WASHINGTON DC
1000 PM EDT SUN MAY 29 2016

Note: "FAIR" indicates few or no clouds below 12,000 feet
with no significant weather and/or obstructions to visibility.
 TC=TEMPERATURE CELSIUS

 * =Non NWS site. Station does not report precipitation (e.g. rain,
    snow, etc.), thunder, or fog.

DCZ001-MDZ009-015-VAZ040>042-051-053>054-300300-
WASHINGTON METRO

CITY           SKY/WX    TMP DP  RH WIND       PRES   REMARKS
WASHINGTON NAT LGT RAIN  69  64  84 NE9       30.07S
DULLES         LGT RAIN  70  66  87 CALM      30.08R
ANDREWS AFB    LGT RAIN  68  66  92 N8        30.06F FOG
FT BELVOIR     LGT RAIN  69  67  92 CALM      30.07S
QUANTICO       LGT RAIN  71  67  87 CALM      30.08R
COLLEGE PARK*  MOCLDY    64  63  94 CALM      30.07F
LEESBURG*      LGT RAIN  70  70 100 CALM      30.08F
MANASSAS*      MOCLDY    70  68  94 CALM      30.08R

$$

MDZ006>007-011-014-300300-
BALTIMORE METRO

CITY           SKY/WX    TMP DP  RH WIND       PRES   REMARKS
BWI AIRPORT    CLOUDY    69  66  90 W6        30.07R
MD SCIENCE CTR   N/A     71  64  78 MISG      30.08R
MARTIN STATE   LGT RAIN  73  73 100 W5        30.08R
ANNAPOLIS      LGT RAIN  71  70  96 NW5       30.06R FOG
FORT MEADE*    CLOUDY    66  64  94 CALM      30.09S

$$

MDZ012-015-019>023-300300-
MARYLAND EASTERN SHORE

CITY           SKY/WX    TMP DP  RH WIND       PRES   REMARKS
OCEAN CITY     CLOUDY   N/A N/A N/A VRB5      30.09R
SALISBURY      CLOUDY    72  70  93 SE6       30.08R
BAY BRIDGE AP* RAIN      72  72 100 W3        30.06S FOG
CAMBRIDGE*       N/A     72  72 100 SE5       30.06S
EASTON*        LGT RAIN  73  73 100 CALM      30.10S

$$

MDZ017>025-300300-
SOUTHERN MARYLAND

CITY           SKY/WX    TMP DP  RH WIND       PRES   REMARKS
PATUXENT RIVER CLOUDY    72  70  93 SE7       30.06R
ST INIGOES     CLOUDY    73  71  93 E3        30.06R
LEONARDTOWN*   CLOUDY    72  70  94 CALM      30.08R

$$

MDZ003>005-300300-
NORTH CENTRAL MARYLAND

CITY           SKY/WX    TMP DP  RH WIND       PRES   REMARKS
FREDERICK*     LGT RAIN  68  64  88 CALM      30.10S
HAGERSTOWN APT CLOUDY    71  64  78 S5        30.06F
WESTMINSTER*   LGT RAIN  70  66  88 SE8       30.09R

$$

MDZ501>502-300300-
WESTERN MARYLAND

CITY           SKY/WX    TMP DP  RH WIND       PRES   REMARKS
OAKLAND*       CLOUDY    59  55  88 SE9       30.14S
CUMBERLAND*    CLOUDY    68  68 100 CALM      30.11R

$$

VAZ025>031-300300-
SHENANDOAH VALLEY

CITY           SKY/WX    TMP DP  RH WIND       PRES   REMARKS
WINCHESTER*    CLOUDY    68  63  83 CALM      30.08S
FRONT ROYAL*   CLOUDY    68  68 100 CALM      30.08S
LURAY*         LGT RAIN  64  64 100 SW6       30.10S
NEW MARKET*    CLOUDY    62  61  96 CALM      30.10S
STAUNTON*      RAIN      62  59  91 W3        30.15R
WAYNESBORO*    CLOUDY    60  57  89 CALM      30.14S

$$

WVZ021-048>050-054>055-300300-
EASTERN WEST VIRGINIA PANHANDLE

CITY           SKY/WX    TMP DP  RH WIND       PRES   REMARKS
MARTINSBURG    LGT RAIN  68  66  93 SW6       30.06F FOG
PETERSBURG*    FAIR      65  61  87 CALM      30.11S

$$

VAZ036>039-050-300300-
CENTRAL FOOTHILLS

CITY           SKY/WX    TMP DP  RH WIND       PRES   REMARKS
CHARLOTTESVILL CLOUDY    69  61  75 CALM      30.08S
CULPEPER*      CLOUDY    67  67  99 CALM      30.09R
ORANGE*        CLOUDY    68  66  94 CALM      30.10S
GORDONSVILLE*  CLOUDY    68  67  99 N5        30.07F
WARRENTON*     CLOUDY    67  62  84 CALM      30.07S

$$

VAZ055>057-300300-
NORTH AND CENTRAL PIEDMONT

CITY           SKY/WX    TMP DP  RH WIND       PRES   REMARKS
FREDERICKSBRG* CLOUDY    67  65  93 N5        30.07S
STAFFORD*      CLOUDY    67  64  90 NE3       30.12R

$$

NCZ024-NYZ072-PAZ021-071-VAZ022-071-300300-
OTHER REGIONAL OBSERVATIONS

CITY           SKY/WX    TMP DP  RH WIND       PRES   REMARKS
NEW YORK CITY  MOCLDY    72  63  73 S6        30.09R
PHILADELPHIA   LGT RAIN  73  70  90 SW3       30.08R FOG
PITTSBURGH     CLOUDY    69  59  70 S5        30.05S
ROANOKE        CLOUDY    62  60  93 N8        30.14S
RICHMOND       CLOUDY    70  69  97 N6        30.05S
RALEIGH        CLOUDY    66  65  96 NE7       30.04F

$$

ANZ530>537-300300-
MARINE OBSERVATIONS

STATION/POSITION TIME  TEMP    WIND        PRES
                       AIR SEA DIR/SP/G
                 (UTC) (F)     (DEG/KT/KT) (MB)
THOMAS PT LIGHT  0200   71 69  310/  7/  7 1019.2R
BALT KEY BRIDGE  0100                      1017.7F
COVE POINT       0100                      1018.2F
LEWISETTA        0100      70              1017.1F
SOLOMONS ISLAND  0100      69                N/A
PINEY POINT      0100          140/  8/  9   N/A

$$





USA.gov is the U.S. government's official web portal to all federal, state and local government web resources and services.